Ann Arbor, MI

8:03 PM EDT on October 20, 2017 (GMT -0400)
Ann Arbor Municipal

Weather History for KARB - September, 2013

Change the Weather History Date:

Thursday, September 5, 2013

  Actual Average Record
Temperature  
Mean Temperature 63 °F -  
Max Temperature 72 °F 77 °F 91 °F (2014)
Min Temperature 55 °F 52 °F 37 °F (2010)
Degree Days  
Heating Degree Days 2    
Growing Degree Days 13 (Base 50)    
Moisture  
Dew Point 51 °F    
Average Humidity 69    
Maximum Humidity 90    
Minimum Humidity 38    
Precipitation  
Precipitation 0.00 in - - ()
Sea Level Pressure  
Sea Level Pressure 30.19 in    
Wind  
Wind Speed 7 mph (North)    
Max Wind Speed 12 mph    
Max Gust Speed -    
Visibility 10 miles    
Events      
Averages and records for this station are not official NWS values.
T = Trace of Precipitation, MM = Missing Value Source: NWS Daily Summary

Daily Weather History Graph

Daily Weather History Graph

Search for Another Location

Airport or City:

Trip Planner

Search our weather history database for the weather conditions in past years. The results will help you decide how hot, cold, wet, or windy it might be!

Date:

Astronomy

Sep. 05, 2013 Rise Set
Actual Time 7:04 AM EDT 8:01 PM EDT
Civil Twilight 6:36 AM EDT 8:30 PM EDT
Nautical Twilight 6:02 AM EDT 9:04 PM EDT
Astronomical Twilight 5:26 AM EDT 9:39 PM EDT
Moon 7:16 AM EDT (9/5) 7:51 PM EDT (9/5)
Length of Visible Light 13h 53m
Length of Day
12h 56m
New Moon, 0% of the Moon is Illuminated
Sep 5
New Moon
Sep 12
First Quarter
Sep 19
Full
Sep 26
Last Quarter
Oct 4
New

Hourly Weather History & Observations

Time (EDT) Temp. Dew Point Humidity Pressure Visibility Wind Dir Wind Speed Gust Speed Precip Events Conditions
12:53 AM 64.9 °F 60.1 °F 84% 30.09 in 10.0 mi WNW 6.9 mph - N/A   Partly Cloudy
1:10 AM 64.4 °F 60.8 °F 88% 30.10 in 10.0 mi NW 5.8 mph - N/A   Mostly Cloudy
1:27 AM 64.4 °F 60.8 °F 88% 30.10 in 10.0 mi WNW 4.6 mph - N/A   Scattered Clouds
1:34 AM 62.6 °F 59.0 °F 88% 30.10 in 10.0 mi WNW 4.6 mph - N/A   Mostly Cloudy
1:41 AM 62.6 °F 59.0 °F 88% 30.11 in 10.0 mi NW 4.6 mph - N/A   Partly Cloudy
1:53 AM 63.0 °F 60.1 °F 90% 30.09 in 10.0 mi WNW 4.6 mph - N/A   Mostly Cloudy
2:53 AM 64.9 °F 60.1 °F 84% 30.11 in 10.0 mi North 6.9 mph - N/A   Mostly Cloudy
3:01 AM 64.4 °F 59.0 °F 83% 30.12 in 10.0 mi North 8.1 mph - N/A   Scattered Clouds
3:53 AM 62.1 °F 55.9 °F 80% 30.12 in 10.0 mi North 5.8 mph - N/A   Clear
4:53 AM 57.9 °F 53.1 °F 84% 30.14 in 10.0 mi NNW 8.1 mph - N/A   Clear
5:08 AM 59.0 °F 55.4 °F 88% 30.15 in 10.0 mi North 5.8 mph - N/A   Scattered Clouds
5:53 AM 57.0 °F 52.0 °F 83% 30.16 in 10.0 mi North 8.1 mph - N/A   Clear
6:53 AM 55.0 °F 51.1 °F 86% 30.18 in 10.0 mi North 6.9 mph - N/A   Clear
7:53 AM 55.0 °F 50.0 °F 83% 30.21 in 10.0 mi North 10.4 mph - N/A   Clear
8:53 AM 57.0 °F 48.0 °F 72% 30.22 in 10.0 mi North 9.2 mph - N/A   Clear
9:53 AM 61.0 °F 46.0 °F 58% 30.23 in 10.0 mi North 8.1 mph - N/A   Clear
10:53 AM 63.0 °F 45.0 °F 52% 30.24 in 10.0 mi NNW 9.2 mph - N/A   Clear
11:53 AM 64.9 °F 45.0 °F 48% 30.24 in 10.0 mi NNE 10.4 mph - N/A   Clear
12:53 PM 66.9 °F 43.0 °F 42% 30.25 in 10.0 mi NNE 10.4 mph - N/A   Clear
1:53 PM 70.0 °F 46.0 °F 42% 30.24 in 10.0 mi NNE 9.2 mph - N/A   Clear
2:53 PM 71.1 °F 45.0 °F 39% 30.23 in 10.0 mi North 8.1 mph - N/A   Clear
3:53 PM 71.1 °F 45.0 °F 39% 30.22 in 10.0 mi NNW 10.4 mph - N/A   Clear
4:53 PM 71.1 °F 44.1 °F 38% 30.22 in 10.0 mi Variable 5.8 mph - N/A   Clear
5:53 PM 70.0 °F 46.0 °F 42% 30.22 in 10.0 mi NNE 11.5 mph - N/A   Clear
6:53 PM 68.0 °F 46.9 °F 47% 30.22 in 10.0 mi NE 5.8 mph - N/A   Clear
7:53 PM 64.9 °F 46.0 °F 50% 30.22 in 10.0 mi NNE 4.6 mph - N/A   Clear
8:53 PM 55.0 °F 48.9 °F 80% 30.24 in 10.0 mi NE 3.5 mph - N/A   Clear
9:53 PM 57.9 °F 48.0 °F 70% 30.25 in 10.0 mi ENE 3.5 mph - N/A   Clear
10:53 PM 57.0 °F 48.9 °F 74% 30.27 in 10.0 mi ENE 4.6 mph - N/A   Clear
11:53 PM 55.9 °F 48.0 °F 75% 30.27 in 10.0 mi East 3.5 mph - N/A   Clear